Weather History for KDDC - April, 2014

Change the Weather History Date:

Friday, April 11, 2014

  Actual Average Record
Temperature  
Mean Temperature 58 °F -  
Max Temperature 78 °F 66 °F 90 °F (1996)
Min Temperature 39 °F 41 °F 17 °F (2013)
Degree Days  
Heating Degree Days 6    
Growing Degree Days 8 (Base 50)    
Moisture  
Dew Point 35 °F    
Average Humidity 40    
Maximum Humidity 68    
Minimum Humidity 14    
Precipitation  
Precipitation 0.00 in - - ()
Sea Level Pressure  
Sea Level Pressure 29.94 in    
Wind  
Wind Speed 10 mph (SE)    
Max Wind Speed 17 mph    
Max Gust Speed 21 mph    
Visibility 10 miles    
Events      
Averages and records for this station are not official NWS values.
T = Trace of Precipitation, MM = Missing Value Source: NWS Daily Summary

Daily Weather History Graph

Daily Weather History Graph

Search for Another Location

Airport or City:

Trip Planner

Search our weather history database for the weather conditions in past years. The results will help you decide how hot, cold, wet, or windy it might be!

Date:

Astronomy

Apr. 11, 2014 Rise Set
Actual Time 7:10 AM CDT 8:11 PM CDT
Civil Twilight 6:43 AM CDT 8:38 PM CDT
Nautical Twilight 6:11 AM CDT 9:10 PM CDT
Astronomical Twilight 5:38 AM CDT 9:44 PM CDT
Moon 4:57 PM CDT (4/11) 5:02 AM CDT (4/11)
Length of Visible Light 13h 55m
Length of Day
13h 01m
Waxing Gibbous, 87% of the Moon is Illuminated
Apr 11
Waxing Gibbous
Apr 15
Full
Apr 22
Last Quarter
Apr 29
New
May 6
First Quarter

Hourly Weather History & Observations

Time (CDT) Temp. Windchill Dew Point Humidity Pressure Visibility Wind Dir Wind Speed Gust Speed Precip Events Conditions
12:52 AM 48.0 °F - 30.9 °F 52% 29.95 in 10.0 mi ESE 10.4 mph - N/A   Clear
1:52 AM 46.9 °F - 30.9 °F 54% 30.01 in 10.0 mi NNW 6.9 mph - N/A   Clear
2:52 AM 46.0 °F 42.5 °F 34.0 °F 63% 29.99 in 10.0 mi ESE 6.9 mph - N/A   Partly Cloudy
3:52 AM 50.0 °F - 30.0 °F 46% 29.94 in 10.0 mi SE 17.3 mph - N/A   Scattered Clouds
4:52 AM 46.9 °F - 30.0 °F 52% 29.96 in 10.0 mi ESE 9.2 mph - N/A   Clear
5:52 AM 45.0 °F - 30.0 °F 56% 30.01 in 10.0 mi North - - N/A   Partly Cloudy
6:52 AM 39.0 °F 32.8 °F 28.9 °F 67% 30.04 in 9.0 mi North 9.2 mph - N/A   Clear
7:52 AM 39.9 °F - 30.0 °F 68% 30.06 in 7.0 mi Calm Calm - N/A   Clear
8:52 AM 51.1 °F - 33.1 °F 50% 30.06 in 9.0 mi NNW 4.6 mph - N/A   Clear
9:52 AM 57.0 °F - 30.9 °F 37% 30.05 in 9.0 mi Calm Calm - N/A   Clear
10:52 AM 61.0 °F - 30.9 °F 32% 30.05 in 9.0 mi SE 4.6 mph - N/A   Clear
11:52 AM 66.0 °F - 32.0 °F 28% 30.03 in 10.0 mi SSE 5.8 mph - N/A   Clear
12:52 PM 69.1 °F - 33.1 °F 26% 30.00 in 10.0 mi ESE 6.9 mph - N/A   Clear
1:52 PM 71.1 °F - 33.1 °F 25% 29.98 in 10.0 mi SSE 9.2 mph - N/A   Clear
2:52 PM 73.9 °F - 34.0 °F 23% 29.93 in 10.0 mi SE 12.7 mph - N/A   Clear
3:52 PM 75.0 °F - 36.0 °F 24% 29.89 in 10.0 mi SSE 13.8 mph 20.7 mph N/A   Clear
4:52 PM 77.0 °F - 36.0 °F 23% 29.85 in 10.0 mi SSE 15.0 mph - N/A   Clear
5:52 PM 77.0 °F - 37.9 °F 24% 29.83 in 10.0 mi SSE 17.3 mph - N/A   Clear
6:52 PM 75.0 °F - 39.0 °F 27% 29.84 in 9.0 mi SSE 17.3 mph - N/A   Clear
7:52 PM 70.0 °F - 42.1 °F 36% 29.84 in 9.0 mi SSE 13.8 mph - N/A   Clear
8:52 PM 66.0 °F - 44.1 °F 45% 29.83 in 8.0 mi SE 11.5 mph - N/A   Clear
9:52 PM 61.0 °F - 46.0 °F 58% 29.83 in 10.0 mi SE 11.5 mph - N/A   Clear
10:52 PM 61.0 °F - 46.0 °F 58% 29.81 in 10.0 mi SE 10.4 mph - N/A   Clear
11:52 PM 62.1 °F - 48.0 °F 60% 29.77 in 10.0 mi SSE 16.1 mph - N/A   Clear